Location: Chimay
(50.0486°N, 4.3171°E)
Time: 00:01:05
(UTC+00:00)

Cosmos 2322 - Pass Details

Date: 08 August 2020
Orbit: 842 x 853 km, 71.0° (Epoch: 23 September)

Event Time Altitude Azimuth Distance (km) Brightness Sun altitude
Rises 23:20:21 0° 329° (NNW) 3,415 8.0 -23.9°
Reaches altitude 10° 23:22:49 10° 329° (NNW) 2,475 7.0 -23.9°
Maximum altitude 23:28:29 77° 244° (WSW) 869 3.6 -24.0°
Enters shadow 23:29:27 61° 179° (S) 954 3.6 -24.0°
